Temperature
6 7 6 6 6 6 6 6 6 7 8 9 10 9 8 8 7 6 5 4 5 6 7 8 9 9 8 8 8 8 8 7 7 6 6 5 5 4 4 3 2 2 1 1
7 7 7 7 7 7 6 7 7 7 8 9 9 8 8 7 6 6 5 4 5 6 7 8 8 8 8 8 8 7 7 7 6 6 5 5 4 4 3 2 2 1 1 0
7 8 7 8 8 8 7 7 7 7 8 9 8 8 8 7 7 6 5 5 5 6 8 8 8 8 8 8 7 7 6 6 5 5 4 4 3 3 2 1 1 0 0 -0
7 8 9 9 9 9 8 9 8 8 8 9 8 8 8 8 7 7 6 5 6 7 7 8 8 8 7 7 7 6 6 5 5 4 3 3 2 2 1 1 0 0 -0 -1
7 8 9 10 9 9 9 9 9 9 9 8 8 8 8 8 8 8 7 7 7 8 8 8 8 7 7 6 6 5 5 4 4 3 3 2 1 1 0 0 -0 -1 -1 -2
8 8 9 10 10 9 9 9 10 9 9 9 8 9 8 8 9 8 8 8 8 8 8 8 7 7 6 6 5 5 4 3 3 2 2 1 0 0 -0 -0 -1 -1 -2 -2
8 8 9 10 9 9 10 10 9 9 9 9 8 7 6 8 9 9 8 8 8 7 7 7 7 6 6 5 4 4 3 2 2 1 1 0 0 -0 -1 -1 -1 -2 -2 -3
7 8 9 9 9 9 9 9 8 8 8 8 6 5 6 7 8 8 8 7 7 7 6 6 6 6 5 4 3 3 2 2 1 1 0 -0 -0 -1 -1 -2 -2 -3 -3 -3
7 8 8 8 8 9 8 8 7 6 7 7 5 5 5 6 7 7 7 7 7 7 6 5 5 5 4 3 2 2 1 1 0 0 -0 -1 -1 -1 -2 -2 -3 -3 -4 -5
7 7 8 9 9 8 8 7 7 6 6 7 6 5 5 5 6 6 6 6 6 6 5 4 4 3 3 2 2 1 1 0 -0 -1 -1 -1 -2 -2 -2 -3 -4 -5 -6 -7
7 8 8 9 8 8 8 7 6 6 6 7 7 5 5 5 5 6 6 5 5 5 4 3 2 2 2 1 1 0 0 -0 -1 -1 -2 -2 -2 -3 -3 -4 -5 -7 -7 -8
9 9 8 8 7 8 8 7 7 7 5 6 7 6 6 6 6 6 5 5 4 4 3 2 1 1 1 0 -0 -0 -1 -1 -1 -2 -2 -3 -3 -3 -4 -5 -6 -7 -7 -8
10 9 8 7 7 7 8 7 7 7 7 6 6 7 7 6 5 5 4 4 3 3 2 1 1 0 -0 -1 -1 -1 -1 -2 -2 -2 -3 -3 -4 -4 -5 -5 -6 -6 -7 -8
9 9 7 7 7 7 7 7 7 7 7 7 7 6 6 5 4 4 3 2 2 2 1 0 0 -0 -1 -1 -1 -2 -2 -2 -3 -3 -4 -4 -5 -6 -6 -7 -7 -7 -7 -8
8 9 9 8 7 6 7 7 7 7 7 6 6 6 5 4 3 2 2 1 1 1 0 -0 -1 -1 -2 -2 -2 -2 -3 -3 -4 -4 -5 -5 -6 -6 -7 -8 -8 -8 -8 -9
8 8 8 7 7 6 6 7 7 6 6 6 5 5 4 4 2 2 1 1 0 -0 -1 -1 -1 -2 -2 -2 -3 -3 -3 -4 -4 -5 -5 -6 -7 -7 -8 -8 -9 -9 -9 -9
7 5 5 5 6 6 7 8 8 7 6 6 5 4 3 3 2 1 0 -0 -0 -1 -1 -2 -2 -2 -3 -3 -3 -4 -4 -5 -5 -6 -6 -7 -7 -8 -9 -9 -9 -10 -10 -10
9 9 9 9 8 7 7 7 7 7 6 5 4 3 3 2 1 0 -1 -1 -1 -2 -2 -3 -3 -3 -3 -4 -4 -4 -5 -5 -6 -6 -7 -8 -8 -9 -9 -10 -10 -10 -10 -10
8 8 7 7 7 7 7 7 7 6 5 5 4 3 2 1 1 -0 -1 -1 -2 -2 -3 -3 -4 -4 -4 -4 -5 -5 -5 -6 -6 -7 -8 -8 -9 -9 -10 -10 -10 -10 -11 -11
7 7 7 7 7 7 7 7 6 6 5 4 3 2 1 0 -0 -1 -2 -2 -3 -3 -3 -4 -4 -4 -5 -5 -5 -6 -6 -7 -7 -8 -8 -9 -9 -10 -10 -10 -11 -11 -11 -11
6 6 5 6 6 6 6 6 6 5 4 3 3 2 1 -1 -1 -2 -2 -3 -3 -4 -4 -4 -5 -5 -5 -5 -6 -6 -7 -7 -8 -9 -9 -10 -10 -10 -10 -11 -11 -11 -11 -12
4 4 5 5 6 6 5 5 5 4 3 2 2 1 0 -1 -2 -3 -3 -3 -4 -4 -4 -5 -5 -5 -6 -6 -6 -7 -7 -8 -9 -9 -9 -10 -10 -10 -11 -11 -11 -11 -12 -12
3 3 4 5 5 5 4 4 4 3 2 2 1 0 -0 -1 -2 -3 -3 -4 -4 -5 -5 -5 -5 -6 -6 -6 -7 -8 -8 -9 -9 -9 -10 -10 -10 -11 -11 -11 -11 -12 -12 -12
2 3 4 4 5 4 3 3 2 2 1 0 -1 -1 -1 -2 -3 -4 -4 -4 -5 -5 -5 -6 -6 -6 -7 -7 -8 -8 -9 -9 -9 -10 -10 -10 -11 -11 -11 -11 -11 -12 -12 -12
2 3 4 4 4 4 3 2 1 0 -0 -1 -2 -3 -3 -3 -3 -4 -4 -5 -5 -5 -6 -6 -6 -7 -7 -8 -8 -9 -9 -9 -9 -10 -10 -10 -11 -11 -11 -11 -12 -12 -12 -11
2 2 3 4 4 3 2 1 1 -0 -1 -2 -2 -3 -4 -4 -4 -5 -5 -5 -5 -6 -6 -6 -7 -7 -8 -8 -9 -9 -9 -9 -10 -10 -10 -10 -11 -11 -11 -11 -12 -12 -11 -11
2 2 3 3 3 2 2 1 1 -0 -1 -1 -2 -3 -4 -5 -5 -5 -5 -6 -6 -6 -7 -7 -7 -8 -8 -8 -9 -9 -9 -9 -10 -10 -10 -11 -11 -11 -11 -11 -11 -11 -11 -11
Wind_Speed
19 21 18 19 19 20 24 22 15 15 20 23 13 11 8 2 6 10 12 13 13 13 12 13 14 13 13 13 12 13 14 13 11 10 9 9 8 8 7 6 5 3 3 3
17 19 20 22 21 21 22 21 22 20 21 14 8 7 5 3 9 12 13 13 13 13 14 14 14 15 14 13 12 13 13 12 11 10 9 8 8 7 6 5 4 3 3 3
9 12 11 9 11 14 13 13 14 19 17 11 12 10 6 6 10 12 13 13 14 14 13 13 14 15 15 13 12 12 12 11 10 10 9 8 7 7 5 4 3 3 3 4
7 9 5 5 6 7 10 13 13 12 11 11 10 6 4 4 8 10 12 13 13 13 13 12 12 13 13 13 12 12 12 11 9 9 9 7 7 6 4 2 2 2 3 5
4 6 7 6 3 2 4 5 10 14 13 10 4 2 3 0 5 8 10 11 12 12 14 14 14 15 15 13 12 12 11 10 9 9 8 7 6 4 3 2 2 3 4 5
4 5 4 5 4 2 3 4 6 12 13 8 2 1 1 3 6 10 12 13 14 14 15 14 13 14 15 13 12 11 10 9 8 8 8 7 5 3 2 1 2 4 5 5
5 4 6 7 5 3 2 4 3 7 9 6 4 1 3 6 9 11 13 15 15 15 14 13 14 15 15 13 11 10 11 10 9 8 7 6 4 3 2 2 3 4 6 6
4 4 6 5 3 1 4 4 3 2 3 6 8 8 8 10 12 14 15 15 15 15 13 11 12 15 15 12 10 11 11 10 9 7 6 5 5 3 2 3 4 5 5 7
7 7 5 3 3 4 3 3 3 1 5 12 10 8 9 10 12 13 14 14 13 16 15 10 9 13 16 10 11 12 11 9 8 7 6 4 4 3 2 3 3 5 5 6
5 7 5 4 2 3 4 4 5 7 9 9 13 13 13 12 12 12 13 13 14 16 15 12 10 12 13 12 11 12 10 8 6 6 5 4 3 2 2 3 4 5 6 6
5 7 5 2 2 4 6 9 11 12 11 12 17 15 14 13 12 12 12 11 12 14 15 14 13 13 11 10 11 11 9 7 6 5 4 3 3 2 3 4 5 7 5 5
6 5 4 1 4 6 8 9 11 14 14 11 12 16 15 13 12 12 13 13 14 15 15 13 13 12 9 8 9 10 7 5 4 3 2 2 3 4 6 7 11 13 13 13
2 2 4 6 6 6 8 9 10 11 13 14 12 13 15 14 12 12 13 14 15 15 14 13 12 11 8 8 8 8 7 5 3 3 3 3 3 4 6 7 11 13 15 17
5 6 5 4 5 8 11 13 14 14 13 13 13 13 14 14 13 13 13 12 13 14 13 12 12 9 7 8 8 8 6 5 4 2 2 3 4 4 5 6 8 8 12 17
2 2 7 9 11 11 11 14 16 14 13 12 11 12 13 14 14 12 11 12 13 13 11 11 11 8 6 7 8 7 5 3 3 2 2 3 4 4 5 6 7 8 8 10
7 9 11 12 13 12 11 13 15 13 12 12 12 12 13 14 13 12 10 10 12 12 10 10 9 6 6 7 7 5 4 5 4 3 3 4 4 4 5 6 7 8 9 9
10 10 9 11 12 11 9 9 12 13 12 13 13 13 14 15 14 12 10 9 11 10 9 9 8 6 7 7 6 4 3 4 5 4 3 4 4 5 5 6 7 8 8 12
4 7 10 15 16 14 12 12 13 14 12 12 14 13 13 13 13 11 10 11 12 11 8 8 7 7 6 6 4 3 3 2 3 3 4 4 5 5 6 7 9 10 9 11
7 10 12 12 12 14 14 13 13 13 14 13 14 13 12 12 12 11 10 11 11 9 5 6 10 7 6 5 5 3 3 3 3 3 4 7 7 6 6 7 8 9 10 10
9 12 14 14 13 14 15 14 15 14 12 13 15 14 13 11 11 11 11 9 5 5 6 7 7 5 5 4 5 3 3 3 3 4 4 4 5 6 7 8 9 9 10 10
12 14 15 15 14 13 14 15 16 15 12 12 14 14 13 11 9 9 10 8 4 6 7 8 5 4 3 4 5 3 3 3 4 4 4 5 6 7 7 8 9 9 9 10
11 14 15 16 16 14 11 12 14 15 14 13 13 14 13 11 10 9 7 5 5 8 6 4 3 4 5 5 3 3 3 4 4 4 4 5 6 7 7 8 8 9 9 9
12 13 15 15 16 16 13 12 13 13 13 13 13 12 11 9 7 7 6 4 5 8 5 3 5 6 6 4 3 3 4 4 4 5 5 5 5 6 7 8 8 8 9 9
13 14 14 15 16 17 15 11 12 11 12 11 10 11 11 9 6 5 5 9 9 8 5 5 6 6 5 3 3 3 4 4 5 5 5 5 5 6 6 7 8 8 9 10
13 14 15 15 15 13 14 14 14 13 13 10 10 9 6 5 6 6 6 7 9 8 5 5 6 6 4 3 3 4 4 5 6 5 5 5 6 6 7 7 8 9 9 10
11 10 9 10 11 12 11 11 10 9 10 10 8 6 7 7 8 7 6 6 7 6 4 3 4 4 3 4 4 5 5 6 7 6 6 7 7 7 7 8 10 9 9 10
11 11 11 11 9 9 9 10 11 10 9 10 8 6 7 7 7 6 6 5 4 3 3 3 3 3 4 4 4 5 5 5 6 6 6 6 6 7 8 9 9 9 10 10
Wind_Direction
259 265 264 259 251 234 228 231 240 253 261 273 285 293 297 258 160 153 155 154 152 147 141 136 132 129 129 127 126 126 123 122 122 120 117 115 113 110 105 100 95 82 54 15
275 271 268 265 257 243 235 234 239 255 267 272 287 294 285 207 174 171 169 163 154 147 144 143 140 137 133 130 128 126 124 124 125 121 117 115 113 109 103 94 81 56 26 351
284 292 285 270 255 236 225 220 225 241 254 275 287 282 258 209 183 180 173 165 159 155 151 147 144 141 137 133 128 123 124 126 126 122 117 115 113 105 98 91 65 25 351 335
291 305 298 298 290 230 225 228 218 234 258 265 268 282 274 207 179 170 165 160 153 146 139 134 130 129 126 127 126 124 125 125 124 120 116 112 105 99 92 83 40 356 328 322
286 301 296 307 310 196 196 243 219 231 248 256 266 314 322 69 158 154 150 145 141 137 135 133 134 134 129 125 124 124 126 125 123 120 117 112 104 97 88 57 9 330 314 320
289 308 316 312 314 162 139 302 231 219 234 237 211 297 345 45 109 121 123 127 127 127 128 130 134 134 129 129 128 128 127 121 115 114 115 112 108 99 77 43 336 323 319 316
250 274 282 291 304 125 106 295 305 219 224 196 178 177 68 67 83 102 111 117 121 123 127 132 135 131 127 127 126 123 116 110 105 106 110 110 102 89 63 17 346 335 320 315
198 237 274 320 18 150 268 305 330 278 206 145 115 90 79 82 92 101 107 111 116 116 115 118 126 126 121 118 116 113 109 106 103 100 100 101 93 76 50 15 349 332 321 315
202 225 260 288 276 296 301 308 343 53 109 123 114 104 99 93 95 98 104 106 109 114 111 101 105 120 119 117 116 111 106 105 104 97 84 82 76 47 17 0 338 317 308 302
262 269 271 281 311 16 24 49 64 90 106 113 116 115 108 103 100 100 101 106 113 112 109 99 91 99 112 115 112 110 109 106 101 95 81 60 43 16 355 329 314 303 299 301
263 275 291 313 73 85 81 83 84 82 88 109 116 113 111 108 105 106 106 105 107 109 107 103 100 99 103 109 111 107 105 101 93 83 75 40 10 331 317 279 279 306 297 297
228 243 207 203 113 112 105 99 104 105 95 87 107 114 111 105 105 107 105 104 103 103 105 104 102 98 94 100 108 110 105 95 86 75 52 25 351 328 321 320 323 325 325 324
210 85 96 101 94 96 103 104 102 103 110 106 100 108 109 107 104 103 102 104 106 107 107 105 101 96 94 97 99 99 101 98 81 58 30 359 340 327 322 324 325 328 329 330
134 125 122 127 116 108 110 106 99 94 94 101 106 105 106 104 101 100 102 105 108 106 104 103 99 93 92 95 93 91 87 77 69 41 3 335 320 310 305 311 318 318 324 327
68 131 135 121 113 113 114 115 108 103 102 97 100 105 108 108 105 103 104 107 104 102 102 102 99 92 89 92 91 86 77 60 48 16 344 323 313 308 305 305 309 311 314 322
93 93 113 123 127 128 126 124 120 118 114 109 104 100 101 104 105 102 101 109 111 111 109 104 100 97 93 90 87 75 55 36 34 13 344 329 319 314 314 314 314 315 317 321
132 138 142 143 143 139 134 128 128 126 119 115 113 112 109 107 103 97 88 87 98 101 102 104 102 95 88 88 86 75 51 16 12 6 340 324 316 318 320 319 317 315 314 317
168 161 160 155 150 139 124 117 118 118 116 120 119 114 113 114 114 111 107 102 95 84 80 93 98 93 89 91 84 67 46 15 358 346 335 325 328 330 322 318 317 315 315 317
129 130 128 128 131 129 125 120 116 114 118 120 115 110 107 110 114 115 110 106 104 100 90 100 104 91 84 78 78 53 40 18 2 348 335 337 340 326 321 317 315 315 317 319
116 120 120 117 116 121 121 119 117 115 116 117 114 110 108 109 113 109 99 87 82 107 113 105 95 87 78 64 67 50 35 15 357 342 332 328 324 320 319 319 320 318 318 318
124 123 122 119 113 112 120 124 122 119 116 115 117 118 116 111 109 108 107 98 80 100 104 104 92 89 85 68 56 44 24 2 346 333 326 321 319 317 318 318 317 316 315 316
124 124 122 121 117 112 110 114 117 117 114 110 112 116 116 111 103 91 84 106 119 114 98 85 88 96 80 65 46 25 5 345 330 319 312 309 312 314 313 312 312 310 310 311
121 123 123 122 120 113 104 104 109 114 116 119 122 122 119 115 112 116 110 105 106 108 97 87 94 81 64 53 24 2 344 329 319 312 306 301 301 301 304 305 306 307 307 307
122 120 120 120 118 114 108 102 100 102 103 102 107 115 118 111 85 71 107 123 119 103 80 82 74 60 47 32 358 337 324 315 306 298 297 300 299 299 300 302 303 304 303 302
121 123 126 126 120 118 118 114 107 103 100 98 93 85 81 94 113 109 97 102 111 98 66 51 47 38 28 353 335 321 312 303 299 304 308 306 302 303 302 300 300 301 301 300
123 121 116 113 121 127 129 124 120 119 117 112 100 89 91 93 98 97 92 91 95 94 77 41 15 8 351 331 318 311 306 310 316 313 301 300 300 301 301 301 300 299 298 297
110 111 111 108 108 114 119 121 123 124 125 124 116 108 106 103 100 98 95 88 81 72 49 16 357 341 326 317 311 308 305 302 302 300 299 296 295 295 297 297 298 297 297 296
Height
1410 1405 1404 1400 1397 1396 1397 1394 1393 1382 1377 1368 1369 1369 1367 1366 1366 1368 1372 1375 1378 1383 1389 1396 1404 1413 1420 1427 1434 1440 1446 1452 1456 1460 1464 1467 1469 1470 1471 1471 1471 1470 1469 1467
1400 1394 1390 1386 1382 1382 1383 1384 1383 1380 1374 1366 1367 1367 1365 1365 1366 1368 1372 1375 1380 1385 1391 1398 1405 1413 1420 1427 1434 1441 1446 1451 1456 1459 1462 1465 1467 1468 1468 1468 1468 1467 1465 1463
1393 1384 1382 1374 1368 1368 1370 1371 1374 1374 1367 1365 1365 1364 1364 1363 1365 1367 1372 1376 1380 1386 1392 1399 1407 1414 1421 1428 1435 1441 1446 1451 1455 1458 1461 1463 1465 1466 1466 1466 1465 1464 1461 1459
1394 1385 1373 1369 1361 1361 1362 1363 1366 1365 1363 1363 1362 1362 1362 1362 1364 1367 1372 1377 1382 1388 1395 1402 1409 1416 1423 1430 1436 1441 1446 1450 1454 1457 1459 1461 1463 1463 1464 1463 1462 1460 1457 1454
1394 1384 1374 1365 1361 1361 1362 1361 1360 1361 1361 1360 1362 1362 1361 1361 1364 1368 1372 1377 1383 1389 1396 1403 1410 1418 1424 1431 1437 1442 1446 1450 1453 1456 1458 1460 1461 1462 1461 1461 1459 1456 1453 1449
1393 1386 1377 1368 1361 1359 1363 1361 1355 1357 1358 1360 1363 1364 1364 1364 1366 1370 1375 1379 1385 1391 1398 1405 1412 1419 1425 1431 1437 1442 1446 1449 1453 1455 1457 1459 1459 1460 1459 1457 1455 1452 1449 1445
1392 1388 1379 1367 1362 1362 1366 1362 1355 1355 1355 1359 1362 1365 1366 1366 1368 1372 1377 1382 1387 1393 1400 1407 1414 1420 1426 1432 1438 1442 1446 1449 1452 1455 1456 1457 1458 1457 1456 1454 1451 1448 1445 1442
1391 1388 1381 1366 1364 1366 1363 1358 1356 1355 1355 1358 1362 1365 1367 1369 1372 1375 1380 1385 1390 1396 1402 1409 1416 1422 1428 1434 1439 1443 1446 1449 1452 1454 1455 1456 1456 1454 1452 1450 1447 1444 1440 1437
1384 1380 1370 1367 1366 1364 1361 1358 1356 1355 1355 1358 1362 1366 1370 1373 1376 1380 1384 1389 1394 1400 1406 1413 1420 1426 1430 1435 1440 1443 1447 1450 1452 1453 1454 1454 1453 1451 1449 1446 1443 1439 1435 1430
1377 1371 1367 1365 1364 1362 1360 1358 1357 1357 1358 1360 1363 1368 1373 1377 1381 1385 1389 1394 1400 1405 1410 1416 1423 1429 1433 1437 1441 1445 1448 1450 1451 1452 1452 1452 1450 1448 1446 1443 1439 1434 1430 1425
1373 1368 1365 1363 1364 1363 1362 1361 1361 1362 1364 1366 1368 1373 1377 1382 1386 1390 1395 1400 1405 1410 1414 1420 1426 1432 1436 1440 1443 1446 1448 1449 1450 1451 1450 1449 1448 1446 1442 1439 1435 1431 1426 1422
1369 1364 1364 1364 1364 1365 1365 1365 1366 1367 1370 1374 1376 1379 1383 1388 1392 1397 1401 1406 1410 1415 1419 1425 1430 1435 1439 1442 1445 1447 1448 1449 1449 1449 1448 1447 1445 1443 1439 1436 1432 1428 1424 1420
1362 1362 1363 1364 1365 1367 1368 1369 1371 1373 1376 1379 1384 1387 1390 1394 1399 1403 1407 1412 1416 1420 1425 1429 1434 1437 1441 1443 1445 1447 1448 1448 1448 1447 1446 1444 1441 1438 1435 1432 1429 1425 1420 1415
1361 1362 1363 1364 1366 1369 1371 1373 1376 1379 1383 1386 1390 1393 1396 1400 1404 1409 1413 1417 1421 1425 1429 1433 1436 1439 1442 1444 1446 1447 1447 1447 1447 1445 1443 1441 1438 1434 1430 1426 1422 1419 1415 1411
1360 1361 1362 1364 1367 1370 1373 1376 1379 1383 1387 1392 1395 1399 1402 1405 1409 1414 1418 1422 1426 1429 1433 1436 1439 1441 1443 1445 1446 1446 1446 1446 1445 1443 1440 1438 1434 1431 1427 1423 1418 1413 1409 1405
1359 1360 1362 1364 1368 1372 1376 1379 1382 1387 1391 1395 1399 1403 1407 1410 1414 1418 1423 1427 1430 1432 1436 1438 1441 1443 1444 1445 1446 1446 1445 1444 1442 1440 1438 1435 1431 1428 1424 1419 1415 1410 1405 1400
1357 1360 1362 1365 1369 1373 1378 1382 1385 1389 1394 1398 1402 1406 1410 1413 1417 1422 1426 1430 1433 1435 1438 1441 1442 1444 1445 1446 1445 1445 1444 1442 1440 1438 1435 1432 1428 1424 1420 1416 1411 1406 1402 1397
1358 1359 1360 1362 1367 1373 1379 1384 1389 1393 1397 1401 1405 1409 1413 1417 1420 1424 1428 1432 1435 1437 1440 1442 1443 1445 1445 1445 1444 1443 1442 1440 1438 1435 1432 1428 1425 1421 1417 1412 1408 1403 1397 1393
1357 1359 1362 1366 1371 1376 1381 1386 1391 1396 1400 1404 1408 1412 1416 1420 1424 1427 1431 1434 1437 1439 1441 1443 1444 1445 1445 1444 1443 1442 1440 1438 1435 1432 1429 1426 1422 1418 1413 1409 1404 1399 1394 1389
1357 1360 1363 1368 1374 1379 1384 1389 1394 1399 1403 1407 1411 1415 1419 1423 1426 1430 1433 1436 1439 1441 1442 1443 1444 1444 1444 1443 1442 1440 1438 1435 1432 1429 1426 1422 1418 1414 1410 1406 1401 1396 1391 1387
1358 1361 1365 1370 1376 1382 1388 1392 1397 1401 1406 1410 1414 1417 1421 1425 1429 1432 1435 1437 1440 1441 1443 1443 1444 1444 1443 1442 1440 1438 1435 1433 1429 1426 1422 1419 1415 1411 1407 1403 1398 1393 1389 1384
1359 1362 1367 1372 1377 1383 1390 1395 1400 1404 1408 1412 1417 1420 1423 1427 1430 1434 1437 1439 1440 1442 1443 1443 1443 1442 1441 1440 1438 1435 1433 1430 1427 1423 1420 1416 1412 1408 1404 1400 1395 1391 1387 1382
1361 1364 1369 1374 1380 1385 1392 1398 1402 1407 1410 1415 1418 1422 1425 1429 1432 1435 1437 1439 1441 1442 1442 1442 1442 1441 1440 1438 1436 1433 1430 1427 1424 1420 1417 1413 1409 1405 1401 1397 1393 1389 1384 1380
1362 1367 1371 1377 1383 1388 1394 1400 1405 1409 1413 1417 1421 1425 1428 1430 1433 1436 1438 1439 1441 1441 1442 1441 1441 1439 1438 1436 1433 1430 1427 1424 1421 1418 1414 1410 1407 1403 1399 1395 1391 1387 1383 1379
1365 1369 1374 1379 1385 1390 1396 1401 1406 1410 1415 1418 1422 1426 1430 1433 1435 1436 1438 1439 1440 1441 1441 1440 1439 1437 1435 1433 1431 1428 1425 1421 1418 1414 1411 1408 1404 1400 1397 1393 1389 1385 1381 1377
1367 1372 1377 1383 1387 1392 1396 1401 1406 1411 1415 1419 1423 1427 1430 1433 1435 1436 1438 1439 1440 1440 1440 1439 1437 1435 1433 1431 1428 1425 1422 1419 1415 1412 1408 1405 1401 1398 1394 1390 1387 1383 1379 1376
1370 1375 1380 1385 1390 1395 1399 1404 1408 1412 1417 1420 1423 1427 1430 1433 1435 1436 1438 1439 1439 1439 1438 1437 1435 1433 1431 1428 1425 1422 1419 1416 1412 1409 1405 1402 1399 1395 1392 1388 1385 1381 1378 1375